Date,Installs,Update checks
2019-03-22,4,0
2019-03-23,15,2
2019-03-24,12,2
2019-03-25,13,10
2019-03-26,18,17
2019-03-27,13,20
2019-03-28,16,30
2019-03-29,16,34
2019-03-30,13,27
2019-03-31,15,30
2019-04-01,6,41
2019-04-02,6,33
2019-04-03,10,37
2019-04-04,4,45
2019-04-05,3,32
2019-04-06,4,36
2019-04-07,7,52
2019-04-08,10,51
2019-04-09,5,53
2019-04-10,11,55
2019-04-11,16,56
2019-04-12,14,63
2019-04-13,16,60
2019-04-14,8,53
2019-04-15,9,58
2019-04-16,12,59
2019-04-17,8,64
2019-04-18,17,63
2019-04-19,12,66
2019-04-20,18,64
2019-04-21,14,67
2019-04-22,10,72
2019-04-23,12,71
2019-04-24,17,86
2019-04-25,10,78
2019-04-26,11,92
2019-04-27,18,86
2019-04-28,13,88
2019-04-29,7,94
2019-04-30,10,90
2019-05-01,16,66
2019-05-02,17,89
2019-05-03,11,97
2019-05-04,16,112
2019-05-05,10,123
2019-05-06,9,110
2019-05-07,14,104
2019-05-08,10,125
2019-05-09,18,123
2019-05-10,15,130
2019-05-11,14,122
2019-05-12,17,132
2019-05-13,14,126
2019-05-14,23,147
2019-05-15,15,141
2019-05-16,18,151
2019-05-17,14,157
2019-05-18,13,153
2019-05-19,18,136
2019-05-20,16,156
2019-05-21,10,179
2019-05-22,9,162
2019-05-23,11,187
2019-05-24,20,182
2019-05-25,26,145
2019-05-26,23,174
2019-05-27,22,169
2019-05-28,41,198
2019-05-29,20,210
2019-05-30,17,202
2019-05-31,26,204
2019-06-01,20,192
2019-06-02,20,204
2019-06-03,22,219
2019-06-04,18,229
2019-06-05,20,213
2019-06-06,20,233
2019-06-07,28,214
2019-06-08,32,215
2019-06-09,21,243
2019-06-10,26,238
2019-06-11,32,254
2019-06-12,30,258
2019-06-13,22,263
2019-06-14,18,273
2019-06-15,26,264
2019-06-16,19,246
2019-06-17,14,247
2019-06-18,10,248
2019-06-19,10,277
2019-06-20,11,278
2019-06-21,13,269
2019-06-22,16,249
2019-06-23,12,253
2019-06-24,15,280
2019-06-25,13,269
2019-06-26,13,257
2019-06-27,12,275
2019-06-28,9,249
2019-06-29,12,242
2019-06-30,17,264
2019-07-01,17,291
2019-07-02,20,289
2019-07-03,20,284
2019-07-04,23,298
2019-07-05,27,323
2019-07-06,31,283
2019-07-07,22,286
2019-07-08,14,318
2019-07-09,21,318
2019-07-10,25,324
2019-07-11,27,319
2019-07-12,23,339
2019-07-13,25,320
2019-07-14,22,309
2019-07-15,26,333
2019-07-16,17,352
2019-07-17,15,352
2019-07-18,10,349
2019-07-19,15,360
2019-07-20,20,340
2019-07-21,23,366
2019-07-22,20,366
2019-07-23,18,358
2019-07-24,17,360
2019-07-25,10,357
2019-07-26,15,367
2019-07-27,9,339
2019-07-28,14,341
2019-07-29,18,378
2019-07-30,9,369
2019-07-31,14,380
2019-08-01,12,390
2019-08-02,19,363
2019-08-03,21,350
2019-08-04,21,349
2019-08-05,22,375
2019-08-06,17,387
2019-08-07,13,359
2019-08-08,8,375
2019-08-09,17,367
2019-08-10,29,357
2019-08-11,13,365
2019-08-12,7,404
2019-08-13,9,374
2019-08-14,17,381
2019-08-15,17,380
2019-08-16,17,390
2019-08-17,21,373
2019-08-18,19,379
2019-08-19,13,399
2019-08-20,7,412
2019-08-21,8,385
2019-08-22,12,405
2019-08-23,20,378
2019-08-24,13,374
2019-08-25,15,363
2019-08-26,17,406
2019-08-27,11,380
2019-08-28,5,414
2019-08-29,17,402
2019-08-30,12,414
2019-08-31,13,415
2019-09-01,25,389
2019-09-02,20,411
2019-09-03,16,431
2019-09-04,12,435
2019-09-05,15,416
2019-09-06,18,434
2019-09-07,13,391
2019-09-08,22,420
2019-09-09,16,450
2019-09-10,19,428
2019-09-11,17,457
2019-09-12,17,450
2019-09-13,14,386
2019-09-14,12,401
2019-09-15,15,416
2019-09-16,7,462
2019-09-17,9,466
2019-09-18,6,432
2019-09-19,10,426
2019-09-20,10,428
2019-09-21,11,403
2019-09-22,8,397
2019-09-23,3,448
2019-09-24,4,422
2019-09-25,4,426
2019-09-26,1,449
2019-09-27,3,436
2019-09-28,7,398
2019-09-29,12,428
2019-09-30,11,413
2019-10-01,4,365
2019-10-02,5,344
2019-10-03,8,344
2019-10-04,8,377
2019-10-05,10,353
2019-10-06,10,401
2019-10-07,13,432
2019-10-08,12,479
2019-10-09,6,425
2019-10-10,3,434
2019-10-11,6,453
2019-10-12,8,464
2019-10-13,7,421
2019-10-14,7,457
2019-10-15,9,407
2019-10-16,8,442
2019-10-17,1,421
2019-10-18,0,431
2019-10-19,2,399
2019-10-20,1,412
2019-10-21,3,437
2019-10-22,8,422
2019-10-23,7,414
2019-10-24,5,425
2019-10-25,5,443
2019-10-26,4,407
2019-10-27,5,411
2019-10-28,4,412
2019-10-29,4,434
2019-10-30,7,420
2019-10-31,5,403
2019-11-01,8,412
2019-11-02,4,399
2019-11-03,6,365
2019-11-04,5,445
2019-11-05,1,459
2019-11-06,3,424
2019-11-07,6,392
2019-11-08,6,408
2019-11-09,8,378
2019-11-10,3,398
2019-11-11,2,433
2019-11-12,5,402
2019-11-13,3,415
2019-11-14,4,398
2019-11-15,7,403
2019-11-16,5,395
2019-11-17,5,374
2019-11-18,8,401
2019-11-19,3,419
2019-11-20,7,430
2019-11-21,2,405
2019-11-22,0,392
2019-11-23,4,348
2019-11-24,9,338
2019-11-25,2,419
2019-11-26,2,374
2019-11-27,1,358
2019-11-28,1,380
2019-11-29,0,363
2019-11-30,4,367
2019-12-01,1,337
2019-12-02,0,418
2019-12-03,3,356
2019-12-04,4,362
2019-12-05,4,372
2019-12-06,2,364
2019-12-07,3,380
2019-12-08,3,353
2019-12-09,3,402
2019-12-10,2,387
2019-12-11,0,384
2019-12-12,1,377
2019-12-13,1,366
2019-12-14,5,373
2019-12-15,8,348
2019-12-16,6,388
2019-12-17,3,387
2019-12-18,2,355
2019-12-19,2,360
2019-12-20,1,374
2019-12-21,3,337
2019-12-22,5,353
2019-12-23,0,399
2019-12-24,5,373
2019-12-25,0,364
2019-12-26,2,368
2019-12-27,2,347
2019-12-28,2,348
2019-12-29,1,330
2019-12-30,5,397
2019-12-31,3,342
2020-01-01,2,325
2020-01-02,6,373
2020-01-03,1,372
2020-01-04,3,340
2020-01-05,1,345
2020-01-06,0,378
2020-01-07,5,349
2020-01-08,1,360
2020-01-09,0,369
2020-01-10,2,350
2020-01-11,2,357
2020-01-12,3,354
2020-01-13,3,387
2020-01-14,1,363
2020-01-15,1,360
2020-01-16,1,355
2020-01-17,1,334
2020-01-18,2,327
2020-01-19,0,305
2020-01-20,0,316
2020-01-21,3,327
2020-01-22,1,296
2020-01-23,2,287
2020-01-24,4,255
2020-01-25,0,275
2020-01-26,0,289
2020-01-27,2,295
2020-01-28,1,299
2020-01-29,3,333
2020-01-30,5,319
2020-01-31,2,335
2020-02-01,3,317
2020-02-02,1,342
2020-02-03,3,344
2020-02-04,0,345
2020-02-05,3,333
2020-02-06,1,357
2020-02-07,1,331
2020-02-08,1,132
2020-02-09,0,148
2020-02-10,0,403
2020-02-11,1,352
2020-02-12,0,346
2020-02-13,0,361
2020-02-14,4,331
2020-02-15,1,364
2020-02-16,2,311
2020-02-17,3,345
2020-02-18,0,343
2020-02-19,5,350
2020-02-20,4,365
2020-02-21,4,349
2020-02-22,3,341
2020-02-23,8,359
2020-02-24,5,362
2020-02-25,4,349
2020-02-26,8,358
2020-02-27,3,331
2020-02-28,5,365
2020-02-29,2,340
2020-03-01,4,323
2020-03-02,7,354
2020-03-03,3,350
2020-03-04,5,326
2020-03-05,2,368
2020-03-06,8,341
2020-03-07,1,350
2020-03-08,2,325
2020-03-09,6,356
2020-03-10,3,354
2020-03-11,3,359
2020-03-12,4,323
2020-03-13,3,378
2020-03-14,1,329
2020-03-15,1,334
2020-03-16,5,371
2020-03-17,9,349
2020-03-18,13,352
2020-03-19,14,351
2020-03-20,24,332
2020-03-21,43,348
2020-03-22,37,325
2020-03-23,17,372
2020-03-24,22,382
2020-03-25,13,376
2020-03-26,9,367
2020-03-27,15,371
2020-03-28,13,363
2020-03-29,9,355
2020-03-30,10,379
2020-03-31,10,388
2020-04-01,7,384
2020-04-02,5,375
2020-04-03,7,350
2020-04-04,9,333
2020-04-05,1,328
2020-04-06,8,351
2020-04-07,11,360
2020-04-08,10,358
2020-04-09,4,349
2020-04-10,14,349
2020-04-11,8,328
2020-04-12,11,350
2020-04-13,16,356
2020-04-14,21,368
2020-04-15,16,363
2020-04-16,15,349
2020-04-17,14,357
2020-04-18,8,320
2020-04-19,6,325
2020-04-20,6,347
2020-04-21,8,373
2020-04-22,8,373
2020-04-23,9,338
2020-04-24,14,361
2020-04-25,16,341
2020-04-26,7,349
2020-04-27,8,360
2020-04-28,14,349
2020-04-29,6,336
2020-04-30,10,354
2020-05-01,8,283
2020-05-02,9,314
2020-05-03,5,302
2020-05-04,6,323
2020-05-05,4,322
2020-05-06,9,357
2020-05-07,6,362
2020-05-08,10,354
2020-05-09,6,339
2020-05-10,5,329
2020-05-11,3,346
2020-05-12,1,340
2020-05-13,3,347
2020-05-14,2,330
2020-05-15,5,335
2020-05-16,5,310
2020-05-17,2,289
2020-05-18,2,353
2020-05-19,8,320
2020-05-20,9,351
2020-05-21,10,306
2020-05-22,4,315
2020-05-23,10,329
2020-05-24,14,277
2020-05-25,11,350
2020-05-26,5,297
2020-05-27,10,332
2020-05-28,8,331
2020-05-29,12,322
2020-05-30,18,317
2020-05-31,9,294
2020-06-01,15,322
2020-06-02,6,315
2020-06-03,8,344
2020-06-04,8,305
2020-06-05,8,300
2020-06-06,6,311
2020-06-07,10,309
2020-06-08,7,339
2020-06-09,8,323
2020-06-10,8,335
2020-06-11,4,324
2020-06-12,7,320
2020-06-13,8,286
2020-06-14,3,282
2020-06-15,3,344
2020-06-16,2,289
2020-06-17,6,295
2020-06-18,10,328
2020-06-19,2,287
2020-06-20,4,280
2020-06-21,8,289
2020-06-22,8,301
2020-06-23,11,297
2020-06-24,5,302
2020-06-25,5,263
2020-06-26,5,269
2020-06-27,8,278
2020-06-28,6,306
2020-06-29,3,287
2020-06-30,0,315
2020-07-01,3,308
2020-07-02,3,308
2020-07-03,7,314
2020-07-04,7,292
2020-07-05,8,265
2020-07-06,7,311
2020-07-07,7,316
2020-07-08,6,304
2020-07-09,2,291
2020-07-10,5,288
2020-07-11,7,283
2020-07-12,3,292
2020-07-13,8,295
2020-07-14,3,303
2020-07-15,5,295
2020-07-16,3,313
2020-07-17,5,285
2020-07-18,5,287
2020-07-19,2,272
2020-07-20,3,305
2020-07-21,5,273
2020-07-22,0,284
2020-07-23,2,287
2020-07-24,3,281
2020-07-25,4,252
2020-07-26,4,269
2020-07-27,3,280
2020-07-28,7,294
2020-07-29,7,278
2020-07-30,10,282
2020-07-31,7,294
2020-08-01,7,263
2020-08-02,4,252
2020-08-03,5,289
2020-08-04,7,277
2020-08-05,8,304
2020-08-06,3,286
2020-08-07,6,282
2020-08-08,10,246
2020-08-09,5,253
2020-08-10,8,291
2020-08-11,7,295
2020-08-12,6,268
2020-08-13,4,311
2020-08-14,2,285
2020-08-15,2,242
2020-08-16,3,281
2020-08-17,3,281
2020-08-18,2,270
2020-08-19,1,280
2020-08-20,2,274
2020-08-21,0,269
2020-08-22,2,259
2020-08-23,1,267
2020-08-24,1,291
2020-08-25,0,258
2020-08-26,1,257
2020-08-27,3,271
2020-08-28,1,279
2020-08-29,0,261
2020-08-30,0,245
2020-08-31,1,299
2020-09-01,4,267
2020-09-02,1,281
2020-09-03,0,254
2020-09-04,0,275
2020-09-05,2,249
2020-09-06,1,254
2020-09-07,2,278
2020-09-08,1,265
2020-09-09,3,278
2020-09-10,0,284
2020-09-11,1,267
2020-09-12,0,264
2020-09-13,0,255
2020-09-14,0,281
2020-09-15,0,255
2020-09-16,0,266
2020-09-17,0,280
2020-09-18,0,273
2020-09-19,0,236
2020-09-20,1,252
2020-09-21,1,295
2020-09-22,1,279
2020-09-23,1,285
2020-09-24,2,282
2020-09-25,2,266
2020-09-26,0,278
2020-09-27,1,274
2020-09-28,0,274
2020-09-29,2,261
2020-09-30,0,263
2020-10-01,1,222
2020-10-02,2,236
2020-10-03,0,222
2020-10-04,1,212
2020-10-05,0,235
2020-10-06,0,231
2020-10-07,1,256
2020-10-08,1,253
2020-10-09,1,248
2020-10-10,1,268
2020-10-11,1,237
2020-10-12,2,255
2020-10-13,1,258
2020-10-14,1,266
2020-10-15,1,270
2020-10-16,1,254
2020-10-17,2,227
2020-10-18,0,223
2020-10-19,1,246
2020-10-20,1,266
2020-10-21,1,222
2020-10-22,3,245
2020-10-23,0,239
2020-10-24,0,257
2020-10-25,0,222
2020-10-26,2,265
2020-10-27,2,247
2020-10-28,3,234
2020-10-29,2,251
2020-10-30,3,255
2020-10-31,0,228
2020-11-01,1,223
2020-11-02,2,259
2020-11-03,1,258
2020-11-04,0,244
2020-11-05,1,247
2020-11-06,2,239
2020-11-07,1,233
2020-11-08,1,229
2020-11-09,2,240
2020-11-10,2,244
2020-11-11,1,265
2020-11-12,1,246
2020-11-13,2,246
2020-11-14,2,233
2020-11-15,4,226
2020-11-16,0,248
2020-11-17,0,257
2020-11-18,4,239
2020-11-19,0,227
2020-11-20,2,259
2020-11-21,2,236
2020-11-22,3,218
2020-11-23,1,235
2020-11-24,0,244
2020-11-25,0,233
2020-11-26,1,240
2020-11-27,1,226
2020-11-28,0,231
2020-11-29,0,223
2020-11-30,0,242
2020-12-01,0,261
2020-12-02,0,249
2020-12-03,1,238
2020-12-04,0,230
2020-12-05,1,215
2020-12-06,4,235
2020-12-07,0,258
2020-12-08,2,253
2020-12-09,0,234
2020-12-10,0,245
2020-12-11,3,262
2020-12-12,3,251
2020-12-13,4,213
2020-12-14,0,269
2020-12-15,1,227
2020-12-16,4,234
2020-12-17,3,240
2020-12-18,1,253
2020-12-19,2,222
2020-12-20,0,208
2020-12-21,0,256
2020-12-22,1,226
2020-12-23,2,236
2020-12-24,0,221
2020-12-25,0,222
2020-12-26,1,215
2020-12-27,4,226
2020-12-28,0,257
2020-12-29,0,225
2020-12-30,0,230
2020-12-31,0,230
2021-01-01,0,201
2021-01-02,2,200
2021-01-03,0,210
2021-01-04,2,223
2021-01-05,0,232
2021-01-06,2,252
2021-01-07,2,249
2021-01-08,2,242
2021-01-09,1,216
2021-01-10,2,207
2021-01-11,3,247
2021-01-12,2,221
2021-01-13,1,231
2021-01-14,0,244
2021-01-15,2,239
2021-01-16,2,213
2021-01-17,1,220
2021-01-18,1,227
2021-01-19,1,264
2021-01-20,0,235
2021-01-21,2,241
2021-01-22,0,220
2021-01-23,0,228
2021-01-24,2,214
2021-01-25,3,228
2021-01-26,3,247
2021-01-27,0,242
2021-01-28,0,242
2021-01-29,1,227
2021-01-30,0,205
2021-01-31,1,208
2021-02-01,0,230
2021-02-02,0,235
2021-02-03,3,225
2021-02-04,1,256
2021-02-05,2,235
2021-02-06,0,215
2021-02-07,0,222
2021-02-08,0,219
2021-02-09,4,172
2021-02-10,1,152
2021-02-11,1,147
2021-02-12,1,166
2021-02-13,2,129
2021-02-14,0,102
2021-02-15,0,206
2021-02-16,1,226
2021-02-17,0,212
2021-02-18,1,240
2021-02-19,2,213
2021-02-20,0,225
2021-02-21,2,213
2021-02-22,0,224
2021-02-23,1,252
2021-02-24,0,240
2021-02-25,0,227
2021-02-26,0,232
2021-02-27,1,221
2021-02-28,2,252
2021-03-01,2,238
2021-03-02,1,258
2021-03-03,0,259
2021-03-04,2,250
2021-03-05,0,268
2021-03-06,0,222
2021-03-07,0,232
2021-03-08,1,201
2021-03-09,0,185
2021-03-10,2,212
2021-03-11,0,176
2021-03-12,0,200
2021-03-13,0,173
2021-03-14,2,170
2021-03-15,1,195
2021-03-16,1,221
2021-03-17,1,185
2021-03-18,2,185
2021-03-19,1,190
2021-03-20,1,182
2021-03-21,2,144
2021-03-22,2,167
2021-03-23,0,156
2021-03-24,0,184
2021-03-25,2,182
2021-03-26,1,180
2021-03-27,1,177
2021-03-28,1,154
2021-03-29,1,147
2021-03-30,4,181
2021-03-31,1,141
2021-04-01,0,194
2021-04-02,0,143
2021-04-03,0,129
2021-04-04,0,141
2021-04-05,0,148
2021-04-06,0,169
2021-04-07,1,176
2021-04-08,0,168
2021-04-09,2,154
2021-04-10,2,151
2021-04-11,1,172
2021-04-12,0,141
2021-04-13,0,168
2021-04-14,1,168
2021-04-15,1,172
2021-04-16,2,236
2021-04-17,5,241
2021-04-18,3,216
2021-04-19,3,254
2021-04-20,4,244
2021-04-21,3,251
2021-04-22,0,246
2021-04-23,1,258
2021-04-24,2,200
2021-04-25,1,236
2021-04-26,1,264
2021-04-27,1,254
2021-04-28,3,229
2021-04-29,3,248
2021-04-30,2,220
2021-05-01,0,208
2021-05-02,1,212
2021-05-03,3,216
2021-05-04,1,224
2021-05-05,1,225
2021-05-06,0,253
2021-05-07,1,218
2021-05-08,2,240
2021-05-09,0,223
2021-05-10,0,239
2021-05-11,0,251
2021-05-12,2,240
2021-05-13,0,231
2021-05-14,1,246
2021-05-15,1,220
2021-05-16,2,204
2021-05-17,0,229
2021-05-18,1,243
2021-05-19,3,226
2021-05-20,0,237
2021-05-21,4,236
2021-05-22,3,211
2021-05-23,6,215
2021-05-24,2,258
2021-05-25,1,216
2021-05-26,1,251
2021-05-27,1,237
2021-05-28,0,239
2021-05-29,1,224
2021-05-30,0,202
2021-05-31,3,233
2021-06-01,0,211
2021-06-02,0,230
2021-06-03,2,229
2021-06-04,8,221
2021-06-05,6,171
2021-06-06,5,206
2021-06-07,9,242
2021-06-08,6,234
2021-06-09,6,228
2021-06-10,1,235
2021-06-11,4,229
2021-06-12,4,205
2021-06-13,3,207
2021-06-14,6,226
2021-06-15,4,218
2021-06-16,0,217
2021-06-17,1,239
2021-06-18,1,235
2021-06-19,1,232
2021-06-20,2,226
2021-06-21,2,221
2021-06-22,0,234
2021-06-23,0,230
2021-06-24,1,218
2021-06-25,3,260
2021-06-26,1,226
2021-06-27,0,211
2021-06-28,0,244
2021-06-29,0,235
2021-06-30,0,234
2021-07-01,0,243
2021-07-02,0,225
2021-07-03,1,225
2021-07-04,0,204
2021-07-05,0,211
2021-07-06,3,233
2021-07-07,0,213
2021-07-08,0,224
2021-07-09,0,236
2021-07-10,0,215
2021-07-11,1,213
2021-07-12,0,225
2021-07-13,1,220
2021-07-14,1,230
2021-07-15,3,226
2021-07-16,1,227
2021-07-17,1,219
2021-07-18,1,9
2021-07-19,1,54
2021-07-20,1,239
2021-07-21,1,218
2021-07-22,6,209
2021-07-23,6,229
2021-07-24,0,205
2021-07-25,0,196
2021-07-26,1,232
2021-07-27,2,211
2021-07-28,0,220
2021-07-29,1,218
2021-07-30,1,220
2021-07-31,2,214
2021-08-01,2,196
2021-08-02,3,238
2021-08-03,0,224
2021-08-04,3,242
2021-08-05,3,233
2021-08-06,0,228
2021-08-07,0,211
2021-08-08,0,199
2021-08-09,0,246
2021-08-10,2,213
2021-08-11,1,226
2021-08-12,2,201
2021-08-13,1,232
2021-08-14,0,205
2021-08-15,1,190
2021-08-16,0,219
2021-08-17,0,243
2021-08-18,0,238
2021-08-19,0,216
2021-08-20,2,218
2021-08-21,2,218
2021-08-22,1,207
2021-08-23,1,238
2021-08-24,2,214
2021-08-25,1,237
2021-08-26,0,209
2021-08-27,1,237
2021-08-28,2,220
2021-08-29,1,199
2021-08-30,0,228
2021-08-31,2,229
2021-09-01,1,229
2021-09-02,0,227
2021-09-03,1,232
2021-09-04,0,211
2021-09-05,1,201
2021-09-06,0,222
2021-09-07,0,220
2021-09-08,1,237
2021-09-09,1,227
2021-09-10,0,232
2021-09-11,2,211
2021-09-12,2,222
2021-09-13,0,208
2021-09-14,1,222
2021-09-15,2,226
2021-09-16,1,239
2021-09-17,1,220
2021-09-18,0,206
2021-09-19,2,192
2021-09-20,0,204
2021-09-21,0,204
2021-09-22,0,209
2021-09-23,0,195
2021-09-24,1,196
2021-09-25,0,212
2021-09-26,2,199
2021-09-27,1,214
2021-09-28,0,234
2021-09-29,0,216
2021-09-30,3,213
2021-10-01,1,200
2021-10-02,0,182
2021-10-03,2,195
2021-10-04,2,190
2021-10-05,1,205
2021-10-06,1,217
2021-10-07,1,191
2021-10-08,0,221
2021-10-09,2,194
2021-10-10,2,200
2021-10-11,1,225
2021-10-12,0,214
2021-10-13,0,216
2021-10-14,0,215
2021-10-15,0,221
2021-10-16,1,188
2021-10-17,0,185
2021-10-18,2,203
2021-10-19,0,191
2021-10-20,0,206
2021-10-21,0,212
2021-10-22,1,200
2021-10-23,1,189
2021-10-24,1,184
2021-10-25,0,230
2021-10-26,1,211
2021-10-27,0,195
2021-10-28,0,203
2021-10-29,1,219
2021-10-30,1,196
2021-10-31,0,195
2021-11-01,1,206
2021-11-02,2,217
2021-11-03,2,203
2021-11-04,2,203
2021-11-05,0,201
2021-11-06,0,192
2021-11-07,0,183
2021-11-08,3,209
2021-11-09,1,213
2021-11-10,2,208
2021-11-11,1,209
2021-11-12,2,206
2021-11-13,5,189
2021-11-14,0,189
2021-11-15,3,208
2021-11-16,1,211
2021-11-17,2,216
2021-11-18,3,199
2021-11-19,5,198
2021-11-20,7,190
2021-11-21,4,193
2021-11-22,0,188
2021-11-23,1,203
2021-11-24,1,181
2021-11-25,5,198
2021-11-26,2,198
2021-11-27,2,194
2021-11-28,4,202
2021-11-29,3,225
2021-11-30,2,206
2021-12-01,3,206
2021-12-02,3,207
2021-12-03,2,222
2021-12-04,1,212
2021-12-05,1,195
2021-12-06,2,211
2021-12-07,1,214
2021-12-08,0,209
2021-12-09,1,216
2021-12-10,2,203
2021-12-11,1,194
2021-12-12,0,185
2021-12-13,2,201
2021-12-14,1,206
2021-12-15,0,199
2021-12-16,1,205
2021-12-17,2,211
2021-12-18,2,198
2021-12-19,0,193
2021-12-20,0,202
2021-12-21,0,214
2021-12-22,0,198
2021-12-23,0,202
2021-12-24,1,195
2021-12-25,0,180
2021-12-26,0,196
2021-12-27,3,192
2021-12-28,0,209
2021-12-29,3,196
2021-12-30,2,212
2021-12-31,0,198
2022-01-01,0,169
2022-01-02,0,187
2022-01-03,1,194
2022-01-04,1,213
2022-01-05,2,204
2022-01-06,0,214
2022-01-07,1,210
2022-01-08,2,208
2022-01-09,0,7
2022-01-10,1,0
2022-01-11,0,227
2022-01-12,1,195
2022-01-13,0,202
2022-01-14,2,201
2022-01-15,1,201
2022-01-16,1,185
2022-01-17,1,192
2022-01-18,3,211
2022-01-19,4,206
2022-01-20,0,208
2022-01-21,0,204
2022-01-22,0,194
2022-01-23,2,196
2022-01-24,0,218
2022-01-25,2,202
2022-01-26,0,212
2022-01-27,1,188
2022-01-28,0,209
2022-01-29,1,178
2022-01-30,1,186
2022-01-31,1,170
2022-02-01,1,174
2022-02-02,0,179
2022-02-03,0,174
2022-02-04,0,172
2022-02-05,0,185
2022-02-06,0,193
2022-02-07,2,201
2022-02-08,1,204
2022-02-09,1,202
2022-02-10,1,217
2022-02-11,0,212
2022-02-12,1,180
2022-02-13,0,195
2022-02-14,1,222
2022-02-15,1,197
2022-02-16,1,204
2022-02-17,2,230
2022-02-18,1,201
2022-02-19,1,186
2022-02-20,1,188
2022-02-21,1,205
2022-02-22,0,194
2022-02-23,1,202
2022-02-24,2,207
2022-02-25,3,202
2022-02-26,1,189
2022-02-27,0,193
2022-02-28,0,210
2022-03-01,1,192
2022-03-02,0,200
2022-03-03,1,205
2022-03-04,0,196
2022-03-05,1,183
2022-03-06,2,180
2022-03-07,0,204
2022-03-08,2,184
2022-03-09,0,214
2022-03-10,3,205
2022-03-11,0,202
2022-03-12,0,168
2022-03-13,2,183
2022-03-14,1,188
2022-03-15,1,199
2022-03-16,1,200
2022-03-17,0,214
2022-03-18,1,191
2022-03-19,0,179
2022-03-20,5,182
2022-03-21,1,202
2022-03-22,1,194
2022-03-23,0,214
2022-03-24,2,196
2022-03-25,0,199
2022-03-26,0,203
2022-03-27,1,185
2022-03-28,0,189
2022-03-29,1,199
2022-03-30,1,213
2022-03-31,1,231
2022-04-01,0,202
2022-04-02,1,193
2022-04-03,2,175
2022-04-04,2,175
2022-04-05,0,179
2022-04-06,2,209
2022-04-07,0,202
2022-04-08,0,210
2022-04-09,1,174
2022-04-10,2,188
2022-04-11,0,195
2022-04-12,1,183
2022-04-13,0,217
2022-04-14,3,203
2022-04-15,1,202
2022-04-16,0,179
2022-04-17,2,180
2022-04-18,2,196
2022-04-19,0,193
2022-04-20,0,212
2022-04-21,2,199
2022-04-22,2,198
2022-04-23,1,173
2022-04-24,0,196
2022-04-25,0,196
2022-04-26,0,199
2022-04-27,3,190
2022-04-28,0,206
2022-04-29,1,199
2022-04-30,1,153
2022-05-01,0,172
2022-05-02,1,179
2022-05-03,1,187
2022-05-04,0,187
2022-05-05,0,187
2022-05-06,0,187
2022-05-07,2,187
2022-05-08,0,161
2022-05-09,0,186
2022-05-10,4,178
2022-05-11,0,195
2022-05-12,0,190
2022-05-13,3,213
2022-05-14,1,173
2022-05-15,0,188
2022-05-16,1,186
2022-05-17,1,195
2022-05-18,0,196
2022-05-19,1,200
2022-05-20,1,193
2022-05-21,0,176
2022-05-22,1,175
2022-05-23,0,195
2022-05-24,1,191
2022-05-25,3,184
2022-05-26,2,196
2022-05-27,0,199
2022-05-28,1,176
2022-05-29,2,176
2022-05-30,1,180
2022-05-31,1,193
2022-06-01,2,188
2022-06-02,2,212
2022-06-03,1,155
2022-06-04,4,186
2022-06-05,0,177
2022-06-06,1,192
2022-06-07,2,202
2022-06-08,2,191
2022-06-09,0,201
2022-06-10,0,198
2022-06-11,1,184
2022-06-12,1,184
2022-06-13,1,187
2022-06-14,3,181
2022-06-15,0,185
2022-06-16,1,204
2022-06-17,0,200
2022-06-18,0,179
2022-06-19,1,180
2022-06-20,1,192
2022-06-21,0,192
2022-06-22,1,204
2022-06-23,0,198
2022-06-24,1,197
2022-06-25,0,178
2022-06-26,0,167
2022-06-27,0,182
2022-06-28,0,187
2022-06-29,0,198
2022-06-30,0,193
2022-07-01,0,192
2022-07-02,3,175
2022-07-03,0,173
2022-07-04,0,182
2022-07-05,1,184
2022-07-06,2,181
2022-07-07,0,188
2022-07-08,1,197
2022-07-09,0,179
2022-07-10,1,168
2022-07-11,2,180
2022-07-12,0,193
2022-07-13,2,174
2022-07-14,0,168
2022-07-15,0,191
2022-07-16,0,177
2022-07-17,1,157
2022-07-18,0,182
2022-07-19,3,169
2022-07-20,2,195
2022-07-21,1,173
2022-07-22,0,182
2022-07-23,2,156
2022-07-24,1,128
2022-07-25,1,174
2022-07-26,2,178
2022-07-27,0,192
2022-07-28,0,181
2022-07-29,0,187
2022-07-30,0,153
2022-07-31,0,165
2022-08-01,0,185
2022-08-02,0,195
2022-08-03,1,168
2022-08-04,1,172
2022-08-05,0,176
2022-08-06,2,165
2022-08-07,0,160
2022-08-08,0,174
2022-08-09,1,175
2022-08-10,0,174
2022-08-11,0,179
2022-08-12,0,183
2022-08-13,0,171
2022-08-14,2,172
2022-08-15,2,179
2022-08-16,1,184
2022-08-17,3,172
2022-08-18,0,192
2022-08-19,1,175
2022-08-20,0,160
2022-08-21,1,155
2022-08-22,1,188
2022-08-23,1,183
2022-08-24,2,176
2022-08-25,1,175
2022-08-26,0,187
2022-08-27,0,157
2022-08-28,0,179
2022-08-29,0,185
2022-08-30,1,172
2022-08-31,0,179
2022-09-01,0,186
2022-09-02,0,181
2022-09-03,0,154
2022-09-04,0,159
2022-09-05,2,174
2022-09-06,1,191
2022-09-07,0,176
2022-09-08,1,177
2022-09-09,1,166
2022-09-10,0,152
2022-09-11,2,153
2022-09-12,0,162
2022-09-13,1,186
2022-09-14,0,182
2022-09-15,0,183
2022-09-16,1,186
2022-09-17,2,158
2022-09-18,0,146
2022-09-19,1,181
2022-09-20,1,161
2022-09-21,0,181
2022-09-22,2,187
2022-09-23,1,171
2022-09-24,3,154
2022-09-25,0,157
2022-09-26,1,173
2022-09-27,0,164
2022-09-28,1,174
2022-09-29,2,165
2022-09-30,1,161
2022-10-01,0,140
2022-10-02,0,156
2022-10-03,0,158
2022-10-04,1,147
2022-10-05,2,147
2022-10-06,1,152
2022-10-07,1,146
2022-10-08,1,184
2022-10-09,0,175
2022-10-10,0,145
2022-10-11,1,186
2022-10-12,1,177
2022-10-13,1,162
2022-10-14,2,163
2022-10-15,0,156
2022-10-16,1,156
2022-10-17,3,171
2022-10-18,1,164
2022-10-19,0,161
2022-10-20,2,166
2022-10-21,0,150
2022-10-22,1,142
2022-10-23,2,149
2022-10-24,2,174
2022-10-25,1,155
2022-10-26,3,158
2022-10-27,3,159
2022-10-28,1,149
2022-10-29,1,150
2022-10-30,3,146
2022-10-31,0,162
2022-11-01,1,171
2022-11-02,2,162
2022-11-03,1,163
2022-11-04,1,168
2022-11-05,4,142
2022-11-06,0,154
2022-11-07,3,159
2022-11-08,2,157
2022-11-09,2,159
2022-11-10,1,162
2022-11-11,6,167
2022-11-12,2,145
2022-11-13,3,154
2022-11-14,1,177
2022-11-15,6,169
2022-11-16,1,175
2022-11-17,1,140
2022-11-18,3,158
2022-11-19,1,136
2022-11-20,1,153
2022-11-21,0,155
2022-11-22,2,148
2022-11-23,1,184
2022-11-24,1,152
2022-11-25,1,172
2022-11-26,1,148
2022-11-27,3,142
2022-11-28,1,162
2022-11-29,2,157
2022-11-30,1,160
2022-12-01,0,154
2022-12-02,1,160
2022-12-03,2,130
2022-12-04,2,145
2022-12-05,2,164
2022-12-06,1,153
2022-12-07,5,153
2022-12-08,1,167
2022-12-09,2,157
2022-12-10,4,149
2022-12-11,2,138
2022-12-12,3,145
2022-12-13,4,153
2022-12-14,4,142
2022-12-15,2,173
2022-12-16,5,151
2022-12-17,7,114
2022-12-18,4,143
2022-12-19,4,155
2022-12-20,7,160
2022-12-21,4,145
2022-12-22,1,149
2022-12-23,3,155
2022-12-24,0,126
2022-12-25,2,138
2022-12-26,2,168
2022-12-27,0,152
2022-12-28,4,167
2022-12-29,3,164
2022-12-30,1,176
2022-12-31,0,127
2023-01-01,1,152
2023-01-02,2,155
2023-01-03,3,186
2023-01-04,4,172
2023-01-05,3,172
2023-01-06,1,179
2023-01-07,2,167
2023-01-08,4,170
2023-01-09,3,188
2023-01-10,3,191
2023-01-11,2,181
2023-01-12,2,176
2023-01-13,1,163
2023-01-14,2,171
2023-01-15,2,133
2023-01-16,2,176
2023-01-17,0,156
2023-01-18,0,178
2023-01-19,0,159
2023-01-20,2,151